Retour au catalogue

STARLINK-4791

ActifCommunicationsVLEO
NORAD 53936·PAYLOAD·🇺🇸 United States

Lancé Sep 24, 2022 depuis Cape Canaveral Space Force Station

Loading…

Prochains Passages (prochaines 24 heures)

TLE

FraisSource: CelesTrak SupGP

Époque: Sep 15, 2026, 02:06 UTC

1 53936C 22119BC  26258.08798611  .00027638  00000+0  88888-3 0  2580
2 53936  53.1572 154.9716 0001355  86.8532  50.5658 15.31683321    13

Suivez STARLINK-4791 en temps réel avec AllMySat

Download on the App Store